User: anonymous   Login
Location: Unspecified
(0.0000°N, 0.0000°E)
Time: 02:11:26
(UTC+00:00)
Language:

STARLINK-33653 - Orbit

View from above orbital plane
View from above orbital plane
View from above satellite
View from above satellite

Ground track
Ground track

The orbit is defined by the following mean orbital elements,

1 63380U          26145.46137892 +.00000000 +00000-0 +35998-3 0 00008
2 63380  53.1599  55.8556 0001380  94.3579 265.7579 15.30207721    06
Epoch (UTC): 25 May 2026 11:04:23
Eccentricity: 0.0001380
inclination: 53.1599°
perigee height: 474 km
apogee height: 476 km
right ascension of ascending node: 55.8556°
argument of perigee: 94.3579°
revolutions per day: 15.30207721
mean anomaly at epoch: 265.7579°

The dashed part of the orbit path shows where the satellite is in the earth's shadow,  

DLR